Погода в Тырме

Россия / Хабаровский край     50°02′36″N   132°10′15″E
темп.,
°C
ветер,
м/с
пор.,
м/с
влажн.,
%
обл.,
%
осадки,
мм/ч
давл.,
гПа
погр.,
м
8 мая, сб
сб801:00+2св3897100 3.6 997355
04:000св41198100 6.4 997492
07:00+1св31097100 4.4 997524
10:00+1всв3696100 6.7 998470
13:00+3всв3598100 0.7 999375
16:00+3всв3597100 1.6 999451
19:00+3св1493100 0.3 1000219
22:00+3св399099 0.6 1001355
9 мая, вс
вс901:00+1св2993100 0.0 1001286
04:000св3990100 0.0 1001336
07:00+1всв2988100 0.0 1002400
10:00+4всв3679100 0.0 1003541
13:00+8св357598 0.0 1003939
16:00+8всв347698 0.0 1004773
19:00+7св248298 0.0 1005313
22:00+3ссв2491100 0.0 1007101
10 мая, пн
пн1001:00+2св129091 0.0 100971
04:000ссв119287 0.0 101025
07:00+1всв1187100 0.0 101180
10:00+7в1265100 0.0 1011604
13:00+12зюз1253100 0.0 10101255
16:00+12зсз2255100 0.0 10101297
19:00+10з2477100 0.4 1011142
22:00+8зюз129195 0.9 101350
11 мая, вт
вт1101:00+7вюв1194100 0.2 101416
04:00+5в1292100 0.7 101671
07:00+5всв129095 0.1 1017114
10:00+10в117778 0.1 1017658
13:00+12вюв226352 0.1 10161216
16:00+15вюв224785 0.1 10141414
19:00+13юв3561100 0.0 1014782
22:00+7вюв388673 0.0 1015205
12 мая, ср
ср1201:00+4вюв249698 0.0 101694
04:00+3вюв2894100 0.0 1015199
07:00+5вюв51284100 0.0 1013592
10:00+11юв61262100 0.0 10101082
13:00+12юв71361100 0.0 10081273
16:00+9юв71383100 0.6 10071326
19:00+8юв51085100 1.9 1006913
22:00+7юв5108992 1.9 1006666